| time (UTC) | temp F | wind direction | speed MPH | gust MPH | rain 1hr in | rain 24hr in | rain mn in | humidity % | barometer mb |
| 20260505063004 | 55 | 338 | 9.0 | 13.0 | 0.00 | 0.00 | 0.00 | 54 | 1002.7 |
| 20260505061501 | 55 | 356 | 11.0 | 16.0 | 0.00 | 0.00 | 0.00 | 54 | 1002.3 |
| 20260505060103 | 55 | 1 | 11.0 | 18.0 | 0.00 | 0.00 | 0.00 | 54 | 1002.5 |
| 20260505054601 | 55 | 11 | 10.0 | 17.0 | 0.00 | 0.00 | 0.00 | 55 | 1002.6 |
| 20260505053100 | 56 | 9 | 5.0 | 14.0 | 0.00 | 0.00 | 0.00 | 55 | 1002.2 |
| 20260505051557 | 56 | 24 | 4.0 | 9.0 | 0.00 | 0.00 | 0.00 | 56 | 1002.2 |
| 20260505041602 | 56 | 12 | 9.0 | 16.0 | 0.00 | 0.00 | 0.00 | 53 | 1002.0 |
| 20260505040057 | 57 | 13 | 11.0 | 25.0 | 0.00 | 0.00 | 0.00 | 53 | 1001.8 |
| 20260505034554 | 58 | 12 | 12.0 | 21.0 | 0.00 | 0.00 | 0.00 | 48 | 1001.6 |
| 20260505033054 | 57 | 16 | 12.0 | 27.0 | 0.00 | 0.00 | 0.00 | 50 | 1000.4 |
| 20260505031554 | 58 | 1 | 18.0 | 24.0 | 0.00 | 0.00 | 0.00 | 49 | 1000.0 |
| 20260505030110 | 58 | 11 | 18.0 | 33.0 | 0.00 | 0.00 | 0.00 | 50 | 999.4 |
| 20260505024558 | 59 | 351 | 16.0 | 29.0 | 0.00 | 0.00 | 0.00 | 47 | 999.3 |
| 20260505023052 | 60 | 38 | 18.0 | 31.0 | 0.00 | 0.00 | 0.00 | 43 | 998.4 |
| 20260505021552 | 61 | 25 | 18.0 | 32.0 | 0.00 | 0.00 | 0.00 | 42 | 997.9 |
| 20260505020050 | 63 | 342 | 20.0 | 31.0 | 0.00 | 0.00 | 0.00 | 36 | 998.0 |
| 20260505014603 | 65 | 340 | 13.0 | 25.0 | 0.00 | 0.00 | 0.00 | 33 | 997.5 |
| 20260505013052 | 65 | 1 | 12.0 | 22.0 | 0.00 | 0.00 | 0.00 | 34 | 997.1 |
| 20260505011550 | 65 | 1 | 14.0 | 22.0 | 0.00 | 0.00 | 0.00 | 33 | 997.0 |
| 20260505010055 | 67 | 1 | 12.0 | 21.0 | 0.00 | 0.00 | 0.00 | 28 | 996.3 |
| 20260505004550 | 68 | 11 | 11.0 | 20.0 | 0.00 | 0.00 | 0.00 | 28 | 996.3 |
| 20260505003056 | 68 | 7 | 9.0 | 21.0 | 0.00 | 0.00 | 0.00 | 27 | 996.3 |
| 20260505001546 | 69 | 7 | 10.0 | 20.0 | 0.00 | 0.00 | 0.00 | 26 | 996.4 |
| 20260505000051 | 70 | 10 | 8.0 | 13.0 | 0.00 | 0.00 | 0.00 | 25 | 996.3 |
| 20260504234546 | 71 | 1 | 9.0 | 17.0 | 0.00 | 0.00 | 0.00 | 24 | 996.2 |
| 20260504233047 | 74 | 277 | 7.0 | 12.0 | 0.00 | 0.00 | 0.00 | 19 | 996.3 |
| 20260504231544 | 74 | 309 | 5.0 | 18.0 | 0.00 | 0.00 | 0.00 | 19 | 996.1 |
| 20260504230044 | 74 | 249 | 5.0 | 14.0 | 0.00 | 0.00 | 0.00 | 19 | 996.0 |
| 20260504224543 | 74 | 254 | 7.0 | 17.0 | 0.00 | 0.00 | 0.00 | 18 | 996.0 |
| 20260504223058 | 75 | 351 | 6.0 | 17.0 | 0.00 | 0.00 | 0.00 | 17 | 995.9 |
| 20260504221541 | 74 | 259 | 8.0 | 18.0 | 0.00 | 0.00 | 0.00 | 18 | 996.1 |
| 20260504220039 | 74 | 257 | 5.0 | 20.0 | 0.00 | 0.00 | 0.00 | 18 | 996.4 |
| 20260504214539 | 74 | 210 | 6.0 | 17.0 | 0.00 | 0.00 | 0.00 | 18 | 996.4 |
| 20260504213037 | 74 | 304 | 10.0 | 22.0 | 0.00 | 0.00 | 0.00 | 19 | 996.6 |
| 20260504211551 | 75 | 236 | 5.0 | 19.0 | 0.00 | 0.00 | 0.00 | 21 | 997.0 |
| 20260504210038 | 74 | 262 | 7.0 | 26.0 | 0.00 | 0.00 | 0.00 | 22 | 997.1 |
| 20260504204533 | 75 | 250 | 8.0 | 22.0 | 0.00 | 0.00 | 0.00 | 20 | 997.3 |
| 20260504203032 | 74 | 242 | 10.0 | 25.0 | 0.00 | 0.00 | 0.00 | 20 | 997.4 |
| 20260504201531 | 75 | 265 | 9.0 | 22.0 | 0.00 | 0.00 | 0.00 | 20 | 997.6 |
| 20260504200031 | 76 | 271 | 6.0 | 22.0 | 0.00 | 0.00 | 0.00 | 19 | 997.6 |
| 20260504194529 | 76 | 231 | 6.0 | 16.0 | 0.00 | 0.00 | 0.00 | 16 | 997.5 |
| 20260504193027 | 76 | 266 | 6.0 | 14.0 | 0.00 | 0.00 | 0.00 | 16 | 997.7 |
| 20260504191527 | 75 | 269 | 6.0 | 20.0 | 0.00 | 0.00 | 0.00 | 16 | 997.9 |
| 20260504190023 | 75 | 231 | 8.0 | 21.0 | 0.00 | 0.00 | 0.00 | 17 | 998.0 |
| 20260504184533 | 75 | 249 | 10.0 | 16.0 | 0.00 | 0.00 | 0.00 | 15 | 998.1 |
| 20260504183020 | 75 | 284 | 5.0 | 15.0 | 0.00 | 0.00 | 0.00 | 17 | 998.5 |
| 20260504181517 | 74 | 284 | 9.0 | 18.0 | 0.00 | 0.00 | 0.00 | 18 | 998.6 |
| 20260504180015 | 74 | 244 | 7.0 | 21.0 | 0.00 | 0.00 | 0.00 | 19 | 998.5 |
| 20260504174514 | 73 | 234 | 9.0 | 21.0 | 0.00 | 0.00 | 0.00 | 20 | 998.6 |
| 20260504173011 | 72 | 257 | 4.0 | 12.0 | 0.00 | 0.00 | 0.00 | 22 | 999.2 |
| 20260504171509 | 72 | 280 | 5.0 | 17.0 | 0.00 | 0.00 | 0.00 | 22 | 999.6 |
| 20260504081548 | 52 | 6 | 0.0 | 0.0 | 0.00 | 0.00 | 0.00 | 48 | 1003.2 |